DAL616 TXKF-KJFK

Flight info

Callsign DAL616
Flight time N/A
Altitude 34000
Route DASER L459 SAVIK/N0466F340 DCT YAALE Y495 CAMRN
Aircraft A319/M-SDE3FGHIRWY/LB1

Departure

Time 2026-05-09 03:01
Airport L.F. Wade International Airport (TXKF)

Arrival

Time N/A
Airport John F. Kennedy International Airport (KJFK)
Time Latitude Longitude Altitude Speed Heading
2026-05-09 02:45 32.36362 -64.70374 28 ft 0 kts 247°
2026-05-09 02:48 32.36370 -64.70354 27 ft 4 kts 247°
2026-05-09 02:48 32.36378 -64.70330 29 ft 4 kts 249°
2026-05-09 02:48 32.36384 -64.70300 28 ft 4 kts 268°
2026-05-09 02:49 32.36392 -64.70248 28 ft 3 kts 247°
2026-05-09 02:49 32.36393 -64.70244 27 ft 0 kts 247°
2026-05-09 02:51 32.36391 -64.70250 28 ft 5 kts 247°
2026-05-09 02:51 32.36385 -64.70267 27 ft 5 kts 242°
2026-05-09 02:51 32.36355 -64.70272 24 ft 5 kts 149°
2026-05-09 02:51 32.36341 -64.70253 27 ft 6 kts 124°
2026-05-09 02:52 32.36315 -64.70215 24 ft 6 kts 142°
2026-05-09 02:52 32.36274 -64.70188 24 ft 7 kts 135°
2026-05-09 02:52 32.36276 -64.70129 26 ft 9 kts 67°
2026-05-09 02:52 32.36304 -64.70052 26 ft 11 kts 66°
2026-05-09 02:53 32.36336 -64.69963 25 ft 13 kts 66°
2026-05-09 02:53 32.36375 -64.69853 27 ft 15 kts 67°
2026-05-09 02:53 32.36416 -64.69737 24 ft 16 kts 67°
2026-05-09 02:53 32.36458 -64.69618 25 ft 16 kts 67°
2026-05-09 02:54 32.36499 -64.69500 26 ft 16 kts 67°
2026-05-09 02:54 32.36542 -64.69382 26 ft 16 kts 68°
2026-05-09 02:54 32.36584 -64.69260 27 ft 16 kts 66°
2026-05-09 02:54 32.36628 -64.69138 27 ft 18 kts 67°
2026-05-09 02:55 32.36682 -64.68984 27 ft 21 kts 67°
2026-05-09 02:55 32.36709 -64.68822 27 ft 20 kts 111°
2026-05-09 02:55 32.36682 -64.68661 27 ft 20 kts 101°
2026-05-09 02:55 32.36653 -64.68500 27 ft 20 kts 101°
2026-05-09 02:56 32.36626 -64.68339 27 ft 19 kts 101°
2026-05-09 02:56 32.36600 -64.68187 27 ft 19 kts 101°
2026-05-09 02:56 32.36574 -64.68035 27 ft 19 kts 101°
2026-05-09 02:56 32.36547 -64.67880 27 ft 19 kts 101°
2026-05-09 02:57 32.36521 -64.67725 27 ft 20 kts 101°
2026-05-09 02:57 32.36494 -64.67567 27 ft 19 kts 102°
2026-05-09 02:57 32.36465 -64.67411 27 ft 19 kts 102°
2026-05-09 02:57 32.36438 -64.67254 27 ft 20 kts 101°
2026-05-09 02:58 32.36413 -64.67102 27 ft 18 kts 101°
2026-05-09 02:58 32.36388 -64.66957 27 ft 18 kts 101°
2026-05-09 02:58 32.36363 -64.66810 27 ft 18 kts 101°
2026-05-09 02:58 32.36337 -64.66661 28 ft 18 kts 102°
2026-05-09 02:59 32.36311 -64.66512 28 ft 19 kts 102°
2026-05-09 02:59 32.36268 -64.66378 27 ft 17 kts 114°
2026-05-09 02:59 32.36211 -64.66324 28 ft 6 kts 187°
2026-05-09 02:59 32.36172 -64.66334 29 ft 6 kts 193°
2026-05-09 03:00 32.36145 -64.66360 29 ft 5 kts 257°
2026-05-09 03:00 32.36155 -64.66423 29 ft 21 kts 281°
2026-05-09 03:00 32.36239 -64.66917 29 ft 98 kts 281°
2026-05-09 03:00 32.36419 -64.67952 109 ft 147 kts 283°
2026-05-09 03:01 32.36633 -64.69123 808 ft 145 kts 279°
2026-05-09 03:01 32.36832 -64.70269 1563 ft 143 kts 281°
2026-05-09 03:01 32.37264 -64.71393 2079 ft 164 kts 299°
2026-05-09 03:01 32.38003 -64.72569 2720 ft 192 kts 305°
2026-05-09 03:02 32.38891 -64.73892 3494 ft 217 kts 304°
2026-05-09 03:02 32.39876 -64.75376 4165 ft 241 kts 304°
2026-05-09 03:02 32.40934 -64.76981 4948 ft 252 kts 304°
2026-05-09 03:02 32.42017 -64.78633 5891 ft 255 kts 304°
2026-05-09 03:03 32.43106 -64.80310 6871 ft 258 kts 303°
2026-05-09 03:03 32.44199 -64.82004 7882 ft 260 kts 303°
2026-05-09 03:03 32.45296 -64.83713 8864 ft 261 kts 303°
2026-05-09 03:03 32.46384 -64.85412 9840 ft 263 kts 303°
2026-05-09 03:04 32.47507 -64.87174 10409 ft 279 kts 302°
2026-05-09 03:04 32.48720 -64.89093 10706 ft 302 kts 302°
2026-05-09 03:04 32.50022 -64.91150 11104 ft 319 kts 303°
2026-05-09 03:04 32.51369 -64.93269 11818 ft 324 kts 303°
2026-05-09 03:05 32.52734 -64.95411 12620 ft 327 kts 303°
2026-05-09 03:05 32.54111 -64.97569 13449 ft 329 kts 302°
2026-05-09 03:05 32.55495 -64.99738 14207 ft 331 kts 302°
2026-05-09 03:05 32.56893 -65.01931 14900 ft 334 kts 302°
2026-05-09 03:06 32.58295 -65.04134 15578 ft 337 kts 302°
2026-05-09 03:06 32.59715 -65.06367 16260 ft 340 kts 302°
2026-05-09 03:06 32.61140 -65.08613 16926 ft 343 kts 302°
2026-05-09 03:06 32.62580 -65.10886 17625 ft 346 kts 302°
2026-05-09 03:07 32.64037 -65.13188 18283 ft 349 kts 302°
2026-05-09 03:07 32.65505 -65.15508 18853 ft 352 kts 302°
2026-05-09 03:07 32.66966 -65.17818 19420 ft 355 kts 302°
2026-05-09 03:07 32.68455 -65.20174 20008 ft 358 kts 301°
2026-05-09 03:08 32.69959 -65.22555 20557 ft 362 kts 301°
2026-05-09 03:08 32.71475 -65.24960 21084 ft 365 kts 301°
2026-05-09 03:08 32.73000 -65.27383 21605 ft 367 kts 301°
2026-05-09 03:08 32.74537 -65.29827 22140 ft 370 kts 301°
2026-05-09 03:09 32.76085 -65.32289 22675 ft 372 kts 301°
2026-05-09 03:09 32.77641 -65.34759 23182 ft 374 kts 301°
2026-05-09 03:09 32.79209 -65.37247 23641 ft 377 kts 301°
2026-05-09 03:09 32.80787 -65.39751 24022 ft 380 kts 301°
2026-05-09 03:10 32.82375 -65.42270 24411 ft 382 kts 301°
2026-05-09 03:10 32.83968 -65.44806 24789 ft 384 kts 301°
2026-05-09 03:10 32.85550 -65.47329 25166 ft 387 kts 301°
2026-05-09 03:10 32.87166 -65.49909 25551 ft 389 kts 301°
2026-05-09 03:11 32.88790 -65.52502 25930 ft 392 kts 301°
2026-05-09 03:11 32.90424 -65.55115 26305 ft 394 kts 301°
2026-05-09 03:11 32.92069 -65.57742 26673 ft 397 kts 301°
2026-05-09 03:11 32.93727 -65.60389 27038 ft 399 kts 302°
2026-05-09 03:12 32.95390 -65.63046 27440 ft 401 kts 301°
2026-05-09 03:12 32.97058 -65.65715 27828 ft 402 kts 301°
2026-05-09 03:12 32.98733 -65.68402 28181 ft 404 kts 301°
2026-05-09 03:12 33.00413 -65.71101 28518 ft 407 kts 301°
2026-05-09 03:13 33.03803 -65.76544 29169 ft 411 kts 302°
2026-05-09 03:13 33.05490 -65.79254 29541 ft 413 kts 301°
2026-05-09 03:13 33.07199 -65.82003 29971 ft 412 kts 301°
2026-05-09 03:14 33.08902 -65.84739 30404 ft 410 kts 301°
2026-05-09 03:14 33.10596 -65.87464 30848 ft 407 kts 301°
2026-05-09 03:14 33.12278 -65.90173 31303 ft 405 kts 301°
2026-05-09 03:14 33.13946 -65.92861 31766 ft 402 kts 301°
2026-05-09 03:15 33.15600 -65.95527 32311 ft 397 kts 301°
2026-05-09 03:15 33.17235 -65.98164 32866 ft 393 kts 301°
2026-05-09 03:15 33.18852 -66.00775 33364 ft 389 kts 301°
2026-05-09 03:15 33.20458 -66.03371 33819 ft 387 kts 301°
2026-05-09 03:16 33.22052 -66.05959 33957 ft 386 kts 300°
2026-05-09 03:16 33.23640 -66.08544 33976 ft 386 kts 300°
2026-05-09 03:16 33.26818 -66.13709 33970 ft 385 kts 300°
2026-05-09 03:17 33.29997 -66.18868 33970 ft 385 kts 300°
2026-05-09 03:17 33.33178 -66.24036 33973 ft 386 kts 300°
2026-05-09 03:18 33.36347 -66.29186 33983 ft 383 kts 300°
2026-05-09 03:18 33.39473 -66.34287 33976 ft 382 kts 300°
2026-05-09 03:19 33.42609 -66.39406 34013 ft 382 kts 300°
2026-05-09 03:19 33.45750 -66.44537 34009 ft 381 kts 300°
2026-05-09 03:20 33.48882 -66.49669 34002 ft 381 kts 300°
2026-05-09 03:20 33.52005 -66.54797 34003 ft 381 kts 300°
2026-05-09 03:21 33.55122 -66.59925 34014 ft 380 kts 300°
2026-05-09 03:21 33.58235 -66.65046 34014 ft 379 kts 300°
2026-05-09 03:22 33.61329 -66.70148 34009 ft 378 kts 300°
2026-05-09 03:22 33.64420 -66.75239 34007 ft 377 kts 300°
2026-05-09 03:23 33.67499 -66.80332 34003 ft 377 kts 300°
2026-05-09 03:23 33.70579 -66.85429 33996 ft 376 kts 300°
2026-05-09 03:24 33.73631 -66.90485 34010 ft 376 kts 300°
2026-05-09 03:24 33.76705 -66.95562 34012 ft 375 kts 300°
2026-05-09 03:25 33.79768 -67.00637 34009 ft 374 kts 300°
2026-05-09 03:25 33.82815 -67.05710 34011 ft 374 kts 300°
2026-05-09 03:26 33.85853 -67.10788 34006 ft 374 kts 300°
2026-05-09 03:26 33.88899 -67.15867 34007 ft 374 kts 300°
2026-05-09 03:27 33.91936 -67.20943 34003 ft 373 kts 299°
2026-05-09 03:27 33.94962 -67.26024 34008 ft 373 kts 299°
2026-05-09 03:28 33.97991 -67.31090 34012 ft 372 kts 299°
2026-05-09 03:28 34.00999 -67.36123 34010 ft 372 kts 299°
2026-05-09 03:29 34.04012 -67.41191 34007 ft 372 kts 299°
2026-05-09 03:29 34.07027 -67.46252 34009 ft 371 kts 299°
2026-05-09 03:30 34.10034 -67.51315 34005 ft 371 kts 299°
2026-05-09 03:30 34.13051 -67.56369 34066 ft 372 kts 301°
2026-05-09 03:31 34.16297 -67.59964 34032 ft 384 kts 314°
2026-05-09 03:31 34.20561 -67.63785 34021 ft 384 kts 313°
2026-05-09 03:32 34.24839 -67.67646 34018 ft 384 kts 313°
2026-05-09 03:32 34.29120 -67.71519 34019 ft 384 kts 313°
2026-05-09 03:33 34.33394 -67.75399 34016 ft 384 kts 313°
2026-05-09 03:33 34.37675 -67.79276 34014 ft 384 kts 313°
2026-05-09 03:34 34.41949 -67.83149 34014 ft 384 kts 313°
2026-05-09 03:34 34.46222 -67.87020 34036 ft 382 kts 313°
2026-05-09 03:35 34.50475 -67.90880 34025 ft 382 kts 313°
2026-05-09 03:35 34.54718 -67.94749 34023 ft 381 kts 312°
2026-05-09 03:36 34.58957 -67.98620 34018 ft 381 kts 312°
2026-05-09 03:36 34.63201 -68.02492 34018 ft 382 kts 313°
2026-05-09 03:37 34.67444 -68.06372 34018 ft 381 kts 312°
2026-05-09 03:37 34.71684 -68.10251 34058 ft 381 kts 312°
2026-05-09 03:38 34.75920 -68.14131 34042 ft 381 kts 312°
2026-05-09 03:38 34.80145 -68.18015 34031 ft 381 kts 312°
2026-05-09 03:39 34.84372 -68.21896 34060 ft 380 kts 312°
2026-05-09 03:39 34.88586 -68.25773 34055 ft 379 kts 312°
2026-05-09 03:40 34.92794 -68.29646 34051 ft 378 kts 312°
2026-05-09 03:40 34.96988 -68.33522 34052 ft 378 kts 312°
2026-05-09 03:41 35.01159 -68.37377 34087 ft 378 kts 312°
2026-05-09 03:41 35.05325 -68.41222 34051 ft 374 kts 311°
2026-05-09 03:42 35.09468 -68.45063 34024 ft 374 kts 311°
2026-05-09 03:42 35.13605 -68.48914 34023 ft 374 kts 311°
2026-05-09 03:43 35.17754 -68.52764 34022 ft 375 kts 311°
2026-05-09 03:43 35.21906 -68.56612 34037 ft 374 kts 311°
2026-05-09 03:44 35.26043 -68.60458 34038 ft 373 kts 311°
2026-05-09 03:44 35.30181 -68.64314 34071 ft 374 kts 312°
2026-05-09 03:45 35.34312 -68.68177 34046 ft 373 kts 311°
2026-05-09 03:45 35.38445 -68.72044 34040 ft 374 kts 312°
2026-05-09 03:46 35.42572 -68.75917 34035 ft 374 kts 312°
2026-05-09 03:46 35.46712 -68.79793 34038 ft 374 kts 312°
2026-05-09 03:47 35.50856 -68.83677 34039 ft 375 kts 312°
2026-05-09 03:47 35.54996 -68.87563 34053 ft 375 kts 312°
2026-05-09 03:48 35.59137 -68.91459 34066 ft 375 kts 312°
2026-05-09 03:48 35.63234 -68.95325 34047 ft 373 kts 312°
2026-05-09 03:49 35.67360 -68.99223 34041 ft 374 kts 312°
2026-05-09 03:49 35.71485 -69.03123 34040 ft 374 kts 312°
2026-05-09 03:50 35.75616 -69.07031 34039 ft 374 kts 312°
2026-05-09 03:50 35.79746 -69.10943 34041 ft 375 kts 312°
2026-05-09 03:51 35.83879 -69.14859 34047 ft 375 kts 312°
2026-05-09 03:51 35.88018 -69.18789 34092 ft 375 kts 312°
2026-05-09 03:52 35.92123 -69.22694 34075 ft 374 kts 312°
2026-05-09 03:52 35.96243 -69.26614 34067 ft 374 kts 312°
2026-05-09 03:53 36.00364 -69.30539 34064 ft 374 kts 312°
2026-05-09 03:53 36.04473 -69.34464 34058 ft 373 kts 312°
2026-05-09 03:54 36.08584 -69.38393 34051 ft 373 kts 312°
2026-05-09 03:54 36.12688 -69.42327 34051 ft 373 kts 312°
2026-05-09 03:55 36.16798 -69.46275 34078 ft 374 kts 312°
2026-05-09 03:55 36.20910 -69.50215 34056 ft 374 kts 312°
2026-05-09 03:56 36.24991 -69.54144 34071 ft 374 kts 312°
2026-05-09 03:56 36.29032 -69.58030 34138 ft 355 kts 310°
2026-05-09 03:57 36.32881 -69.61718 34139 ft 346 kts 309°
2026-05-09 03:57 36.36666 -69.65392 34138 ft 345 kts 309°
2026-05-09 03:58 36.40441 -69.69061 34144 ft 344 kts 309°
2026-05-09 03:58 36.44222 -69.72723 34144 ft 345 kts 309°
2026-05-09 03:59 36.48008 -69.76389 34142 ft 345 kts 309°
2026-05-09 03:59 36.51796 -69.80062 34145 ft 345 kts 309°
2026-05-09 04:00 36.55585 -69.83739 34150 ft 345 kts 309°
2026-05-09 04:00 36.59342 -69.87403 34165 ft 345 kts 309°
2026-05-09 04:01 36.63132 -69.91090 34158 ft 346 kts 309°
2026-05-09 04:01 36.66925 -69.94784 34148 ft 346 kts 309°
2026-05-09 04:02 36.70717 -69.98486 34145 ft 346 kts 309°
2026-05-09 04:02 36.74508 -70.02198 34144 ft 346 kts 309°
2026-05-09 04:03 36.78300 -70.05905 34143 ft 346 kts 309°
2026-05-09 04:03 36.82091 -70.09620 34143 ft 346 kts 309°
2026-05-09 04:04 36.85873 -70.13343 34140 ft 346 kts 309°
2026-05-09 04:04 36.89654 -70.17062 34137 ft 346 kts 309°
2026-05-09 04:05 36.93436 -70.20782 34151 ft 346 kts 309°
2026-05-09 04:05 36.97218 -70.24508 34166 ft 346 kts 309°
2026-05-09 04:06 37.01005 -70.28236 34159 ft 346 kts 309°
2026-05-09 04:06 37.04787 -70.31974 34146 ft 346 kts 309°
2026-05-09 04:07 37.08566 -70.35714 34140 ft 346 kts 309°
2026-05-09 04:07 37.12329 -70.39443 34135 ft 346 kts 309°
2026-05-09 04:08 37.16106 -70.43189 34129 ft 346 kts 309°
2026-05-09 04:08 37.19885 -70.46941 34127 ft 347 kts 309°
2026-05-09 04:09 37.23666 -70.50701 34130 ft 347 kts 309°
2026-05-09 04:09 37.27446 -70.54466 34175 ft 347 kts 309°
2026-05-09 04:10 37.31225 -70.58237 34161 ft 347 kts 309°
2026-05-09 04:10 37.35001 -70.62010 34147 ft 347 kts 309°
2026-05-09 04:11 37.38778 -70.65783 34137 ft 347 kts 309°
2026-05-09 04:11 37.42550 -70.69568 34133 ft 347 kts 309°
2026-05-09 04:12 37.46324 -70.73354 34130 ft 347 kts 309°
2026-05-09 04:12 37.50099 -70.77139 34129 ft 347 kts 309°
2026-05-09 04:13 37.53870 -70.80934 34158 ft 347 kts 310°
2026-05-09 04:13 37.57629 -70.84720 34135 ft 349 kts 310°
2026-05-09 04:14 37.61429 -70.88546 34136 ft 350 kts 310°
2026-05-09 04:14 37.65236 -70.92379 34126 ft 351 kts 310°
2026-05-09 04:15 37.69048 -70.96238 34120 ft 351 kts 310°
2026-05-09 04:15 37.72428 -71.00490 34118 ft 336 kts 299°
2026-05-09 04:16 37.74765 -71.04427 34113 ft 337 kts 299°
2026-05-09 04:16 37.77575 -71.09161 34109 ft 337 kts 299°
2026-05-09 04:17 37.80389 -71.13895 34114 ft 337 kts 299°
2026-05-09 04:17 37.83206 -71.18638 34148 ft 338 kts 299°
2026-05-09 04:18 37.86035 -71.23409 34125 ft 339 kts 299°
2026-05-09 04:18 37.88868 -71.28199 34113 ft 340 kts 299°
2026-05-09 04:19 37.91705 -71.33007 34112 ft 341 kts 299°
2026-05-09 04:19 37.94543 -71.37832 34109 ft 341 kts 299°
2026-05-09 04:20 37.97385 -71.42660 34109 ft 341 kts 299°
2026-05-09 04:20 38.00225 -71.47484 34107 ft 341 kts 299°
2026-05-09 04:21 38.03069 -71.52314 34109 ft 341 kts 299°
2026-05-09 04:22 38.07317 -71.59564 34097 ft 341 kts 299°
2026-05-09 04:22 38.10149 -71.64407 34098 ft 342 kts 299°
2026-05-09 04:23 38.12966 -71.69227 34147 ft 342 kts 299°
2026-05-09 04:23 38.15803 -71.74096 34108 ft 343 kts 299°
2026-05-09 04:24 38.18648 -71.78984 34100 ft 343 kts 298°
2026-05-09 04:24 38.21488 -71.83875 34095 ft 344 kts 298°
2026-05-09 04:25 38.24330 -71.88775 34096 ft 344 kts 298°
2026-05-09 04:25 38.27610 -71.93310 34087 ft 365 kts 314°
2026-05-09 04:25 38.29930 -71.94754 34082 ft 390 kts 328°
2026-05-09 04:26 38.32709 -71.95337 34085 ft 421 kts 343°
2026-05-09 04:26 38.38635 -71.95279 34085 ft 427 kts 345°
2026-05-09 04:27 38.44591 -71.95197 34095 ft 429 kts 345°
2026-05-09 04:27 38.50567 -71.95118 34086 ft 429 kts 345°
2026-05-09 04:28 38.56550 -71.95048 34086 ft 430 kts 345°
2026-05-09 04:28 38.62540 -71.94991 34137 ft 431 kts 346°
2026-05-09 04:29 38.68513 -71.94919 34104 ft 432 kts 346°
2026-05-09 04:29 38.74535 -71.94839 34089 ft 433 kts 346°
2026-05-09 04:30 38.80572 -71.94763 34078 ft 433 kts 346°
2026-05-09 04:30 38.86618 -71.94683 34119 ft 434 kts 347°
2026-05-09 04:31 38.92655 -71.94594 34107 ft 434 kts 347°
2026-05-09 04:31 38.95628 -71.94780 34101 ft 418 kts 338°
2026-05-09 04:31 38.98391 -71.95621 34097 ft 400 kts 328°
2026-05-09 04:31 39.00880 -71.97042 34094 ft 384 kts 319°
2026-05-09 04:32 39.03060 -71.98940 34090 ft 372 kts 311°
2026-05-09 04:32 39.07069 -72.03151 34150 ft 372 kts 311°
2026-05-09 04:33 39.11021 -72.07279 34088 ft 367 kts 311°
2026-05-09 04:33 39.14973 -72.11419 34078 ft 366 kts 311°
2026-05-09 04:34 39.18920 -72.15561 34066 ft 366 kts 311°
2026-05-09 04:34 39.22860 -72.19707 34063 ft 366 kts 310°
2026-05-09 04:35 39.26791 -72.23871 34062 ft 366 kts 311°
2026-05-09 04:35 39.30729 -72.28037 34064 ft 366 kts 311°
2026-05-09 04:36 39.34680 -72.32194 34063 ft 366 kts 311°
2026-05-09 04:36 39.38625 -72.36353 34062 ft 366 kts 311°
2026-05-09 04:37 39.42556 -72.40525 34060 ft 366 kts 311°
2026-05-09 04:37 39.46497 -72.44708 34061 ft 366 kts 311°
2026-05-09 04:38 39.50434 -72.48891 34062 ft 366 kts 311°
2026-05-09 04:38 39.54370 -72.53080 34063 ft 366 kts 311°
2026-05-09 04:39 39.58299 -72.57270 34085 ft 366 kts 311°
2026-05-09 04:39 39.62230 -72.61462 34071 ft 366 kts 310°
2026-05-09 04:40 39.66162 -72.65666 34068 ft 366 kts 310°
2026-05-09 04:40 39.70091 -72.69883 34060 ft 366 kts 310°
2026-05-09 04:41 39.74018 -72.74105 34055 ft 366 kts 310°
2026-05-09 04:41 39.77945 -72.78329 34053 ft 366 kts 310°
2026-05-09 04:41 39.79762 -72.80582 34049 ft 355 kts 301°
2026-05-09 04:42 39.81092 -72.83234 34046 ft 346 kts 291°
2026-05-09 04:42 39.82163 -72.89200 34043 ft 340 kts 271°
2026-05-09 04:43 39.82005 -72.95313 34037 ft 341 kts 270°
2026-05-09 04:43 39.81842 -73.01474 34037 ft 341 kts 270°
2026-05-09 04:44 39.81676 -73.07638 34036 ft 341 kts 270°
2026-05-09 04:44 39.81504 -73.13805 34030 ft 341 kts 270°
2026-05-09 04:45 39.81323 -73.19979 34031 ft 342 kts 270°
2026-05-09 04:45 39.81428 -73.26145 34031 ft 341 kts 279°
2026-05-09 04:46 39.83023 -73.31992 34037 ft 345 kts 288°
2026-05-09 04:46 39.84875 -73.37751 34029 ft 345 kts 288°
2026-05-09 04:47 39.86707 -73.43486 34028 ft 345 kts 288°
2026-05-09 04:47 39.88549 -73.49264 34022 ft 346 kts 288°
2026-05-09 04:48 39.90391 -73.55067 34024 ft 346 kts 288°
2026-05-09 04:48 39.92229 -73.60866 34018 ft 346 kts 288°
2026-05-09 04:49 39.94206 -73.66594 34019 ft 348 kts 290°